一网星座-0516星 (ONEWEB-0516 )

导读 | 星芒AI

ONEWEB-0516 是 OneWeb 卫星通信公司发射的低轨通信卫星之一,主要用于提供全球宽带互联网服务。该卫星属于 OneWeb 计划部署的数百颗卫星系统,旨在为偏远和未覆盖地区提供高速网络连接。该卫星采用先进通信技术,支持高速数据传输和低延迟通信,助力实现全球数字包容。其发射和运行是 OneWeb 恢复和发展计划的重要组成部分,有助于提升全球通信基础设施水平。

基本信息
目录编号:
54134
目录名称:
ONEWEB-0516
国际标识:
2022-138X
轨道中心:
EARTH
卫星名称:
一网星座-0516星
卫星全名:
一网星座-0516星 (ONEWEB-0516 )
卫星状态:
在轨 (已飞行1150 天)
发射日期:
2022-10-22 UTC
国别 :
英国 (GB)
星等 :
--
轨道信息
数据来源 国际轨道数据
星历时间: 2025-12-15T05:53:53+0800
21小时前
查看轨道信息
半长轴: 7563.908km
偏心率: 0.0001817
轨道倾角: 87.919°
近地点辐角 83.432°
升交点赤经 341.647°
平近点角 276.702°
近地点: 1184.398km
远地点: 1187.148km
周期: 109.114分钟
每日圈数: 13.19725
详细信息
平衡模式:
三轴稳定
覆盖范围:
全球
运营商:
一网卫星公司
运营商所在国:
英国
制造商(研发单位):
一网卫星公司
制造商所在国:
英国
使用方式:
暂无
卫星简介
OneWeb卫星网络由648颗重约125公斤的微型卫星组成,运行在1200公里的轨道上。 每颗卫星都能够提供至少每秒8千兆位的吞吐量,以使用其高吞吐量的Ku频段有效载荷为家庭和移动平台提供互联网接入。该卫星仍在工作。
2D轨道图
3D轨道图
轨道高度分析图
轨道倾角分析图
轨道综合分析图
查看轨道综合分析图